Year,Month,Day,Hour,Minute,Value (Times are PST for temperature in C)
2009,06,03,00,00,18.90
2009,06,03,00,01,18.90
2009,06,03,00,02,18.90
2009,06,03,00,03,18.90
2009,06,03,00,04,18.90
2009,06,03,00,05,18.90
2009,06,03,00,06,18.90
2009,06,03,00,07,18.80
2009,06,03,00,08,18.80
2009,06,03,00,09,18.90
2009,06,03,00,10,18.90
2009,06,03,00,11,18.90
2009,06,03,00,12,18.90
2009,06,03,00,13,18.90
2009,06,03,00,14,18.90
2009,06,03,00,15,18.90
2009,06,03,00,16,18.80
2009,06,03,00,17,18.80
2009,06,03,00,18,18.80
2009,06,03,00,19,18.80
2009,06,03,00,20,18.80
2009,06,03,00,21,18.70
2009,06,03,00,22,18.70
2009,06,03,00,23,18.70
2009,06,03,00,24,18.60
2009,06,03,00,25,18.60
2009,06,03,00,26,18.60
2009,06,03,00,27,18.50
2009,06,03,00,28,18.50
2009,06,03,00,29,18.50
2009,06,03,00,30,18.40
2009,06,03,00,31,18.40
2009,06,03,00,32,18.40
2009,06,03,00,33,18.30
2009,06,03,00,34,18.30
2009,06,03,00,35,18.30
2009,06,03,00,36,18.30
2009,06,03,00,37,18.20
2009,06,03,00,38,18.20
2009,06,03,00,39,18.30
2009,06,03,00,40,18.30
2009,06,03,00,41,18.30
2009,06,03,00,42,18.30
2009,06,03,00,43,18.40
2009,06,03,00,44,18.40
2009,06,03,00,45,18.40
2009,06,03,00,46,18.40
2009,06,03,00,47,18.40
2009,06,03,00,48,18.40
2009,06,03,00,49,18.40
2009,06,03,00,50,18.40
2009,06,03,00,51,18.40
2009,06,03,00,52,18.40
2009,06,03,00,53,18.40
2009,06,03,00,54,18.40
2009,06,03,00,55,18.40
2009,06,03,00,56,18.40
2009,06,03,00,57,18.30
2009,06,03,00,58,18.30
2009,06,03,00,59,18.30
2009,06,03,01,00,18.20
2009,06,03,01,01,18.20
2009,06,03,01,02,18.20
2009,06,03,01,03,18.20
2009,06,03,01,04,18.10
2009,06,03,01,05,18.10
2009,06,03,01,06,18.10
2009,06,03,01,07,18.00
2009,06,03,01,08,17.90
2009,06,03,01,09,17.90
2009,06,03,01,10,17.90
2009,06,03,01,11,17.90
2009,06,03,01,12,17.80
2009,06,03,01,13,17.80
2009,06,03,01,14,17.70
2009,06,03,01,15,17.70
2009,06,03,01,16,17.70
2009,06,03,01,17,17.60
2009,06,03,01,18,17.60
2009,06,03,01,19,17.50
2009,06,03,01,20,17.50
2009,06,03,01,21,17.50
2009,06,03,01,22,17.50
2009,06,03,01,23,17.40
2009,06,03,01,24,17.40
2009,06,03,01,25,17.40
2009,06,03,01,26,17.30
2009,06,03,01,27,17.30
2009,06,03,01,28,17.30
2009,06,03,01,29,17.30
2009,06,03,01,30,17.30
2009,06,03,01,31,17.30
2009,06,03,01,32,17.30
2009,06,03,01,33,17.20
2009,06,03,01,34,17.20
2009,06,03,01,35,17.20
2009,06,03,01,36,17.10
2009,06,03,01,37,17.10
2009,06,03,01,38,17.10
2009,06,03,01,39,17.00
2009,06,03,01,40,17.00
2009,06,03,01,41,17.00
2009,06,03,01,42,17.00
2009,06,03,01,43,17.00
2009,06,03,01,44,17.00
2009,06,03,01,45,16.90
2009,06,03,01,46,16.90
2009,06,03,01,47,16.90
2009,06,03,01,48,16.80
2009,06,03,01,49,16.80
2009,06,03,01,50,16.70
2009,06,03,01,51,16.70
2009,06,03,01,52,16.70
2009,06,03,01,53,16.60
2009,06,03,01,54,16.60
2009,06,03,01,55,16.60
2009,06,03,01,56,16.40
2009,06,03,01,57,16.40
2009,06,03,01,58,16.40
2009,06,03,01,59,16.40
2009,06,03,02,00,16.40
2009,06,03,02,01,16.40
2009,06,03,02,02,16.40
2009,06,03,02,03,16.40
2009,06,03,02,04,16.30
2009,06,03,02,05,16.30
2009,06,03,02,06,16.30
2009,06,03,02,07,16.30
2009,06,03,02,08,16.30
2009,06,03,02,09,16.30
2009,06,03,02,10,16.30
2009,06,03,02,11,16.30
2009,06,03,02,12,16.30
2009,06,03,02,13,16.30
2009,06,03,02,14,16.30
2009,06,03,02,15,16.30
2009,06,03,02,16,16.30
2009,06,03,02,17,16.20
2009,06,03,02,18,16.20
2009,06,03,02,19,16.20
2009,06,03,02,20,16.20
2009,06,03,02,21,16.20
2009,06,03,02,22,16.20
2009,06,03,02,23,16.20
2009,06,03,02,24,16.20
2009,06,03,02,25,16.20
2009,06,03,02,26,16.20
2009,06,03,02,27,16.10
2009,06,03,02,28,16.10
2009,06,03,02,29,16.10
2009,06,03,02,30,16.10
2009,06,03,02,31,16.10
2009,06,03,02,32,16.10
2009,06,03,02,33,16.10
2009,06,03,02,34,16.10
2009,06,03,02,35,16.10
2009,06,03,02,36,16.10
2009,06,03,02,37,16.10
2009,06,03,02,38,16.10
2009,06,03,02,39,16.10
2009,06,03,02,40,15.90
2009,06,03,02,41,15.90
2009,06,03,02,42,15.90
2009,06,03,02,43,15.90
2009,06,03,02,44,15.90
2009,06,03,02,45,15.90
2009,06,03,02,46,15.80
2009,06,03,02,47,15.80
2009,06,03,02,48,15.80
2009,06,03,02,49,15.80
2009,06,03,02,50,15.80
2009,06,03,02,51,15.80
2009,06,03,02,52,15.80
2009,06,03,02,53,15.80
2009,06,03,02,54,15.80
2009,06,03,02,55,15.80
2009,06,03,02,56,15.70
2009,06,03,02,57,15.70
2009,06,03,02,58,15.70
2009,06,03,02,59,15.70
2009,06,03,03,00,15.70
2009,06,03,03,01,15.70
2009,06,03,03,02,15.70
2009,06,03,03,03,15.70
2009,06,03,03,04,15.70
2009,06,03,03,05,15.70
2009,06,03,03,06,15.60
2009,06,03,03,07,15.60
2009,06,03,03,08,15.60
2009,06,03,03,09,15.60
2009,06,03,03,10,15.60
2009,06,03,03,11,15.50
2009,06,03,03,12,15.50
2009,06,03,03,13,15.50
2009,06,03,03,14,15.50
2009,06,03,03,15,15.50
2009,06,03,03,16,15.40
2009,06,03,03,17,15.40
2009,06,03,03,18,15.40
2009,06,03,03,19,15.40
2009,06,03,03,20,15.30
2009,06,03,03,21,15.30
2009,06,03,03,22,15.30
2009,06,03,03,23,15.30
2009,06,03,03,24,15.30
2009,06,03,03,25,15.30
2009,06,03,03,26,15.30
2009,06,03,03,27,15.30
2009,06,03,03,28,15.30
2009,06,03,03,29,15.30
2009,06,03,03,30,15.30
2009,06,03,03,31,15.30
2009,06,03,03,32,15.30
2009,06,03,03,33,15.30
2009,06,03,03,34,15.30
2009,06,03,03,35,15.30
2009,06,03,03,36,15.20
2009,06,03,03,37,15.20
2009,06,03,03,38,15.20
2009,06,03,03,39,15.20
2009,06,03,03,40,15.10
2009,06,03,03,41,15.10
2009,06,03,03,42,15.10
2009,06,03,03,43,15.10
2009,06,03,03,44,15.10
2009,06,03,03,45,15.00
2009,06,03,03,46,15.00
2009,06,03,03,47,15.00
2009,06,03,03,48,15.00
2009,06,03,03,49,15.00
2009,06,03,03,50,14.90
2009,06,03,03,51,14.90
2009,06,03,03,52,14.90
2009,06,03,03,53,14.90
2009,06,03,03,54,14.90
2009,06,03,03,55,14.90
2009,06,03,03,56,14.90
2009,06,03,03,57,14.90
2009,06,03,03,58,14.90
2009,06,03,03,59,14.90
2009,06,03,04,00,14.90
2009,06,03,04,01,14.90
2009,06,03,04,02,14.90
2009,06,03,04,03,14.90
2009,06,03,04,04,14.90
2009,06,03,04,05,14.90
2009,06,03,04,06,14.90
2009,06,03,04,07,14.80
2009,06,03,04,08,14.80
2009,06,03,04,09,14.80
2009,06,03,04,10,14.80
2009,06,03,04,11,14.80
2009,06,03,04,12,14.80
2009,06,03,04,13,14.80
2009,06,03,04,14,14.80
2009,06,03,04,15,14.80
2009,06,03,04,16,14.80
2009,06,03,04,17,14.70
2009,06,03,04,18,14.70
2009,06,03,04,19,14.60
2009,06,03,04,20,14.60
2009,06,03,04,21,14.60
2009,06,03,04,22,14.60
2009,06,03,04,23,14.60
2009,06,03,04,24,14.50
2009,06,03,04,25,14.50
2009,06,03,04,26,14.60
2009,06,03,04,27,14.60
2009,06,03,04,28,14.60
2009,06,03,04,29,14.60
2009,06,03,04,30,14.60
2009,06,03,04,31,14.70
2009,06,03,04,32,14.70
2009,06,03,04,33,14.70
2009,06,03,04,34,14.60
2009,06,03,04,35,14.60
2009,06,03,04,36,14.60
2009,06,03,04,37,14.60
2009,06,03,04,38,14.50
2009,06,03,04,39,14.50
2009,06,03,04,40,14.50
2009,06,03,04,41,14.50
2009,06,03,04,42,14.50
2009,06,03,04,43,14.50
2009,06,03,04,44,14.50
2009,06,03,04,45,14.50
2009,06,03,04,46,14.60
2009,06,03,04,47,14.70
2009,06,03,04,48,14.80
2009,06,03,04,49,14.90
2009,06,03,04,50,14.90
2009,06,03,04,51,15.00
2009,06,03,04,52,15.00
2009,06,03,04,53,15.00
2009,06,03,04,54,15.10
2009,06,03,04,55,15.10
2009,06,03,04,56,15.10
2009,06,03,04,57,15.10
2009,06,03,04,58,15.10
2009,06,03,04,59,15.20
2009,06,03,05,00,15.20
2009,06,03,05,01,15.20
2009,06,03,05,02,15.20
2009,06,03,05,03,15.20
2009,06,03,05,04,15.20
2009,06,03,05,05,15.20
2009,06,03,05,06,15.20
2009,06,03,05,07,15.30
2009,06,03,05,08,15.30
2009,06,03,05,09,15.20
2009,06,03,05,10,15.20
2009,06,03,05,11,15.20
2009,06,03,05,12,15.20
2009,06,03,05,13,15.20
2009,06,03,05,14,15.10
2009,06,03,05,15,15.20
2009,06,03,05,16,15.20
2009,06,03,05,17,15.20
2009,06,03,05,18,15.20
2009,06,03,05,19,15.20
2009,06,03,05,20,15.30
2009,06,03,05,21,15.30
2009,06,03,05,22,15.30
2009,06,03,05,23,15.40
2009,06,03,05,24,15.40
2009,06,03,05,25,15.50
2009,06,03,05,26,15.50
2009,06,03,05,27,15.50
2009,06,03,05,28,15.60
2009,06,03,05,29,15.60
2009,06,03,05,30,15.60
2009,06,03,05,31,15.60
2009,06,03,05,32,15.70
2009,06,03,05,33,15.70
2009,06,03,05,34,15.70
2009,06,03,05,35,15.70
2009,06,03,05,36,15.80
2009,06,03,05,37,15.80
2009,06,03,05,38,15.80
2009,06,03,05,39,15.80
2009,06,03,05,40,15.80
2009,06,03,05,41,15.80
2009,06,03,05,42,15.80
2009,06,03,05,43,15.80
2009,06,03,05,44,15.70
2009,06,03,05,45,15.70
2009,06,03,05,46,15.70
2009,06,03,05,47,15.70
2009,06,03,05,48,15.70
2009,06,03,05,49,15.70
2009,06,03,05,50,15.70
2009,06,03,05,51,15.70
2009,06,03,05,52,15.70
2009,06,03,05,53,15.70
2009,06,03,05,54,15.70
2009,06,03,05,55,15.70
2009,06,03,05,56,15.80
2009,06,03,05,57,15.80
2009,06,03,05,58,15.80
2009,06,03,05,59,15.80
2009,06,03,06,00,15.80
2009,06,03,06,01,15.80
2009,06,03,06,02,15.80
2009,06,03,06,03,15.80
2009,06,03,06,04,15.90
2009,06,03,06,05,15.90
2009,06,03,06,06,16.00
2009,06,03,06,07,16.10
2009,06,03,06,08,16.10
2009,06,03,06,09,16.10
2009,06,03,06,10,16.10
2009,06,03,06,11,16.20
2009,06,03,06,12,16.30
2009,06,03,06,13,16.30
2009,06,03,06,14,16.40
2009,06,03,06,15,16.40
2009,06,03,06,16,16.50
2009,06,03,06,17,16.60
2009,06,03,06,18,16.70
2009,06,03,06,19,16.70
2009,06,03,06,20,16.80
2009,06,03,06,21,16.80
2009,06,03,06,22,16.90
2009,06,03,06,23,16.90
2009,06,03,06,24,16.90
2009,06,03,06,25,16.90
2009,06,03,06,26,16.90
2009,06,03,06,27,16.90
2009,06,03,06,28,16.90
2009,06,03,06,29,16.90
2009,06,03,06,30,17.00
2009,06,03,06,31,17.00
2009,06,03,06,32,17.10
2009,06,03,06,33,17.20
2009,06,03,06,34,17.20
2009,06,03,06,35,17.30
2009,06,03,06,36,17.40
2009,06,03,06,37,17.40
2009,06,03,06,38,17.50
2009,06,03,06,39,17.50
2009,06,03,06,40,17.60
2009,06,03,06,41,17.60
2009,06,03,06,42,17.70
2009,06,03,06,43,17.70
2009,06,03,06,44,17.70
2009,06,03,06,45,17.80
2009,06,03,06,46,17.80
2009,06,03,06,47,17.80
2009,06,03,06,48,17.80
2009,06,03,06,49,17.90
2009,06,03,06,50,17.90
2009,06,03,06,51,17.90
2009,06,03,06,52,17.90
2009,06,03,06,53,17.90
2009,06,03,06,54,17.90
2009,06,03,06,55,17.90
2009,06,03,06,56,17.90
2009,06,03,06,57,17.90
2009,06,03,06,58,17.90
2009,06,03,06,59,18.10
2009,06,03,07,00,18.10
2009,06,03,07,01,18.10
2009,06,03,07,02,18.10
2009,06,03,07,03,18.20
2009,06,03,07,04,18.20
2009,06,03,07,05,18.20
2009,06,03,07,06,18.20
2009,06,03,07,07,18.30
2009,06,03,07,08,18.30
2009,06,03,07,09,18.30
2009,06,03,07,10,18.40
2009,06,03,07,11,18.40
2009,06,03,07,12,18.40
2009,06,03,07,13,18.40
2009,06,03,07,14,18.50
2009,06,03,07,15,18.50
2009,06,03,07,16,18.50
2009,06,03,07,17,18.60
2009,06,03,07,18,18.60
2009,06,03,07,19,18.70
2009,06,03,07,20,18.70
2009,06,03,07,21,18.80
2009,06,03,07,22,18.80
2009,06,03,07,23,18.90
2009,06,03,07,24,18.90
2009,06,03,07,25,18.90
2009,06,03,07,26,18.90
2009,06,03,07,27,19.00
2009,06,03,07,28,19.10
2009,06,03,07,29,19.10
2009,06,03,07,30,19.10
2009,06,03,07,31,19.20
2009,06,03,07,32,19.20
2009,06,03,07,33,19.30
2009,06,03,07,34,19.30
2009,06,03,07,35,19.40
2009,06,03,07,36,19.40
2009,06,03,07,37,19.50
2009,06,03,07,38,19.60
2009,06,03,07,39,19.60
2009,06,03,07,40,19.70
2009,06,03,07,41,19.80
2009,06,03,07,42,19.90
2009,06,03,07,43,19.90
2009,06,03,07,44,20.00
2009,06,03,07,45,20.20
2009,06,03,07,46,20.20
2009,06,03,07,47,20.20
2009,06,03,07,48,20.30
2009,06,03,07,49,20.30
2009,06,03,07,50,20.30
2009,06,03,07,51,20.30
2009,06,03,07,52,20.30
2009,06,03,07,53,20.30
2009,06,03,07,54,20.30
2009,06,03,07,55,20.20
2009,06,03,07,56,20.20
2009,06,03,07,57,20.20
2009,06,03,07,58,20.20
2009,06,03,07,59,20.20
2009,06,03,08,00,20.20
2009,06,03,08,01,20.30
2009,06,03,08,02,20.30
2009,06,03,08,03,20.30
2009,06,03,08,04,20.30
2009,06,03,08,05,20.30
2009,06,03,08,06,20.30
2009,06,03,08,07,20.40
2009,06,03,08,08,20.40
2009,06,03,08,09,20.50
2009,06,03,08,10,20.50
2009,06,03,08,11,20.60
2009,06,03,08,12,20.60
2009,06,03,08,13,20.50
2009,06,03,08,14,20.60
2009,06,03,08,15,20.60
2009,06,03,08,16,20.60
2009,06,03,08,17,20.70
2009,06,03,08,18,20.70
2009,06,03,08,19,20.70
2009,06,03,08,20,20.70
2009,06,03,08,21,20.70
2009,06,03,08,22,20.80
2009,06,03,08,23,20.80
2009,06,03,08,24,20.90
2009,06,03,08,25,21.00
2009,06,03,08,26,21.00
2009,06,03,08,27,21.10
2009,06,03,08,28,21.20
2009,06,03,08,29,21.20
2009,06,03,08,30,21.20
2009,06,03,08,31,21.30
2009,06,03,08,32,21.30
2009,06,03,08,33,21.30
2009,06,03,08,34,21.30
2009,06,03,08,35,21.30
2009,06,03,08,36,21.40
2009,06,03,08,37,21.40
2009,06,03,08,38,21.50
2009,06,03,08,39,21.60
2009,06,03,08,40,21.60
2009,06,03,08,41,21.60
2009,06,03,08,42,21.70
2009,06,03,08,43,21.70
2009,06,03,08,44,21.70
2009,06,03,08,45,21.80
2009,06,03,08,46,21.80
2009,06,03,08,47,21.90
2009,06,03,08,48,22.00
2009,06,03,08,49,22.10
2009,06,03,08,50,22.20
2009,06,03,08,51,22.30
2009,06,03,08,52,22.30
2009,06,03,08,53,22.40
2009,06,03,08,54,22.40
2009,06,03,08,55,22.50
2009,06,03,08,56,22.50
2009,06,03,08,57,22.50
2009,06,03,08,58,22.40
2009,06,03,08,59,22.40
2009,06,03,09,00,22.30
2009,06,03,09,01,22.30
2009,06,03,09,02,22.30
2009,06,03,09,03,22.20
2009,06,03,09,04,22.20
2009,06,03,09,05,22.20
2009,06,03,09,06,22.20
2009,06,03,09,07,22.20
2009,06,03,09,08,22.20
2009,06,03,09,09,22.30
2009,06,03,09,10,22.40
2009,06,03,09,11,22.50
2009,06,03,09,12,22.60
2009,06,03,09,13,22.70
2009,06,03,09,14,22.70
2009,06,03,09,15,22.80
2009,06,03,09,16,22.90
2009,06,03,09,17,22.90
2009,06,03,09,18,22.90
2009,06,03,09,19,23.10
2009,06,03,09,20,23.10
2009,06,03,09,21,23.10
2009,06,03,09,22,23.20
2009,06,03,09,23,23.20
2009,06,03,09,24,23.20
2009,06,03,09,25,23.20
2009,06,03,09,26,23.20
2009,06,03,09,27,23.20
2009,06,03,09,28,23.20
2009,06,03,09,29,23.20
2009,06,03,09,30,23.30
2009,06,03,09,31,23.30
2009,06,03,09,32,23.40
2009,06,03,09,33,23.40
2009,06,03,09,34,23.50
2009,06,03,09,35,23.60
2009,06,03,09,36,23.60
2009,06,03,09,37,23.60
2009,06,03,09,38,23.70
2009,06,03,09,39,23.70
2009,06,03,09,40,23.70
2009,06,03,09,41,23.70
2009,06,03,09,42,23.70
2009,06,03,09,43,23.70
2009,06,03,09,44,23.70
2009,06,03,09,45,23.70
2009,06,03,09,46,23.70
2009,06,03,09,47,23.70
2009,06,03,09,48,23.70
2009,06,03,09,49,23.60
2009,06,03,09,50,23.70
2009,06,03,09,51,23.70
2009,06,03,09,52,23.70
2009,06,03,09,53,23.70
2009,06,03,09,54,23.70
2009,06,03,09,55,23.70
2009,06,03,09,56,23.70
2009,06,03,09,57,23.70
2009,06,03,09,58,23.70
2009,06,03,09,59,23.80
2009,06,03,10,00,23.80
2009,06,03,10,01,23.80
2009,06,03,10,02,23.70
2009,06,03,10,03,23.70
2009,06,03,10,04,23.80
2009,06,03,10,05,23.90
2009,06,03,10,06,24.00
2009,06,03,10,07,24.10
2009,06,03,10,08,24.30
2009,06,03,10,09,24.40
2009,06,03,10,10,24.50
2009,06,03,10,11,24.60
2009,06,03,10,12,24.70
2009,06,03,10,13,24.70
2009,06,03,10,14,24.80
2009,06,03,10,15,24.70
2009,06,03,10,16,24.70
2009,06,03,10,17,24.70
2009,06,03,10,18,24.70
2009,06,03,10,19,24.80
2009,06,03,10,20,24.90
2009,06,03,10,21,24.90
2009,06,03,10,22,24.90
2009,06,03,10,23,24.90
2009,06,03,10,24,24.90
2009,06,03,10,25,24.80
2009,06,03,10,26,24.80
2009,06,03,10,27,24.80
2009,06,03,10,28,24.80
2009,06,03,10,29,24.90
2009,06,03,10,30,24.90
2009,06,03,10,31,24.90
2009,06,03,10,32,24.80
2009,06,03,10,33,24.80
2009,06,03,10,34,24.70
2009,06,03,10,35,24.70
2009,06,03,10,36,24.70
2009,06,03,10,37,24.70
2009,06,03,10,38,24.80
2009,06,03,10,39,24.80
2009,06,03,10,40,24.90
2009,06,03,10,41,24.90
2009,06,03,10,42,25.00
2009,06,03,10,43,25.10
2009,06,03,10,44,25.10
2009,06,03,10,45,25.10
2009,06,03,10,46,25.20
2009,06,03,10,47,25.20
2009,06,03,10,48,25.20
2009,06,03,10,49,25.30
2009,06,03,10,50,25.40
2009,06,03,10,51,25.40
2009,06,03,10,52,25.40
2009,06,03,10,53,25.50
2009,06,03,10,54,25.50
2009,06,03,10,55,25.50
2009,06,03,10,56,25.60
2009,06,03,10,57,25.60
2009,06,03,10,58,25.60
2009,06,03,10,59,25.60
2009,06,03,11,00,25.70
2009,06,03,11,01,25.80
2009,06,03,11,02,25.80
2009,06,03,11,03,25.80
2009,06,03,11,04,25.80
2009,06,03,11,05,25.90
2009,06,03,11,06,25.90
2009,06,03,11,07,26.00
2009,06,03,11,08,26.00
2009,06,03,11,09,25.90
2009,06,03,11,10,25.90
2009,06,03,11,11,25.90
2009,06,03,11,12,25.90
2009,06,03,11,13,25.90
2009,06,03,11,14,26.00
2009,06,03,11,15,26.00
2009,06,03,11,16,26.10
2009,06,03,11,17,26.10
2009,06,03,11,18,26.20
2009,06,03,11,19,26.20
2009,06,03,11,20,26.30
2009,06,03,11,21,26.30
2009,06,03,11,22,26.30
2009,06,03,11,23,26.40
2009,06,03,11,24,26.40
2009,06,03,11,25,26.30
2009,06,03,11,26,26.30
2009,06,03,11,27,26.30
2009,06,03,11,28,26.30
2009,06,03,11,29,26.20
2009,06,03,11,30,26.00
2009,06,03,11,31,26.00
2009,06,03,11,32,26.00
2009,06,03,11,33,26.00
2009,06,03,11,34,26.00
2009,06,03,11,35,26.00
2009,06,03,11,36,26.10
2009,06,03,11,37,26.10
2009,06,03,11,38,26.20
2009,06,03,11,39,26.20
2009,06,03,11,40,26.20
2009,06,03,11,41,26.20
2009,06,03,11,42,26.10
2009,06,03,11,43,26.20
2009,06,03,11,44,26.20
2009,06,03,11,45,26.20
2009,06,03,11,46,26.20
2009,06,03,11,47,26.10
2009,06,03,11,48,26.10
2009,06,03,11,49,26.10
2009,06,03,11,50,26.10
2009,06,03,11,51,26.20
2009,06,03,11,52,26.40
2009,06,03,11,53,26.50
2009,06,03,11,54,26.60
2009,06,03,11,55,26.60
2009,06,03,11,56,26.60
2009,06,03,11,57,26.60
2009,06,03,11,58,26.60
2009,06,03,11,59,26.60
2009,06,03,12,00,26.60
2009,06,03,12,01,26.60
2009,06,03,12,02,26.60
2009,06,03,12,03,26.60
2009,06,03,12,04,26.70
2009,06,03,12,05,26.70
2009,06,03,12,06,26.70
2009,06,03,12,07,26.60
2009,06,03,12,08,26.70
2009,06,03,12,09,26.70
2009,06,03,12,10,26.70
2009,06,03,12,11,26.80
2009,06,03,12,12,26.90
2009,06,03,12,13,26.90
2009,06,03,12,14,26.90
2009,06,03,12,15,26.90
2009,06,03,12,16,27.00
2009,06,03,12,17,27.10
2009,06,03,12,18,27.20
2009,06,03,12,19,27.30
2009,06,03,12,20,27.30
2009,06,03,12,21,27.30
2009,06,03,12,22,27.30
2009,06,03,12,23,27.30
2009,06,03,12,24,27.30
2009,06,03,12,25,27.30
2009,06,03,12,26,27.40
2009,06,03,12,27,27.40
2009,06,03,12,28,27.40
2009,06,03,12,29,27.50
2009,06,03,12,30,27.60
2009,06,03,12,31,27.60
2009,06,03,12,32,27.60
2009,06,03,12,33,27.50
2009,06,03,12,34,27.40
2009,06,03,12,35,27.30
2009,06,03,12,36,27.30
2009,06,03,12,37,27.30
2009,06,03,12,38,27.40
2009,06,03,12,39,27.50
2009,06,03,12,40,27.60
2009,06,03,12,41,27.60
2009,06,03,12,42,27.60
2009,06,03,12,43,27.60
2009,06,03,12,44,27.70
2009,06,03,12,45,27.80
2009,06,03,12,46,27.80
2009,06,03,12,47,27.90
2009,06,03,12,48,28.00
2009,06,03,12,49,28.00
2009,06,03,12,50,28.00
2009,06,03,12,51,28.00
2009,06,03,12,52,28.00
2009,06,03,12,53,28.00
2009,06,03,12,54,28.00
2009,06,03,12,55,28.00
2009,06,03,12,56,28.10
2009,06,03,12,57,28.10
2009,06,03,12,58,28.10
2009,06,03,12,59,27.90
2009,06,03,13,00,27.90
2009,06,03,13,01,27.90
2009,06,03,13,02,28.10
2009,06,03,13,03,28.20
2009,06,03,13,04,28.30
2009,06,03,13,05,28.40
2009,06,03,13,06,28.50
2009,06,03,13,07,28.60
2009,06,03,13,08,28.80
2009,06,03,13,09,28.90
2009,06,03,13,10,29.00
2009,06,03,13,11,29.10
2009,06,03,13,12,29.00
2009,06,03,13,13,28.90
2009,06,03,13,14,28.90
2009,06,03,13,15,28.80
2009,06,03,13,16,28.80
2009,06,03,13,17,28.80
2009,06,03,13,18,28.80
2009,06,03,13,19,28.80
2009,06,03,13,20,28.80
2009,06,03,13,21,28.80
2009,06,03,13,22,28.80
2009,06,03,13,23,28.80
2009,06,03,13,24,28.90
2009,06,03,13,25,28.90
2009,06,03,13,26,29.00
2009,06,03,13,27,29.00
2009,06,03,13,28,28.90
2009,06,03,13,29,28.90
2009,06,03,13,30,28.90
2009,06,03,13,31,28.90
2009,06,03,13,32,28.80
2009,06,03,13,33,28.70
2009,06,03,13,34,28.70
2009,06,03,13,35,28.80
2009,06,03,13,36,28.90
2009,06,03,13,37,28.90
2009,06,03,13,38,29.10
2009,06,03,13,39,29.20
2009,06,03,13,40,29.30
2009,06,03,13,41,29.40
2009,06,03,13,42,29.40
2009,06,03,13,43,29.40
2009,06,03,13,44,29.40
2009,06,03,13,45,29.40
2009,06,03,13,46,29.30
2009,06,03,13,47,29.30
2009,06,03,13,48,29.30
2009,06,03,13,49,29.30
2009,06,03,13,50,29.40
2009,06,03,13,51,29.40
2009,06,03,13,52,29.50
2009,06,03,13,53,29.50
2009,06,03,13,54,29.60
2009,06,03,13,55,29.50
2009,06,03,13,56,29.40
2009,06,03,13,57,29.30
2009,06,03,13,58,29.20
2009,06,03,13,59,29.10
2009,06,03,14,00,29.10
2009,06,03,14,01,29.20
2009,06,03,14,02,29.20
2009,06,03,14,03,29.30
2009,06,03,14,04,29.40
2009,06,03,14,05,29.40
2009,06,03,14,06,29.30
2009,06,03,14,07,29.40
2009,06,03,14,08,29.50
2009,06,03,14,09,29.60
2009,06,03,14,10,29.60
2009,06,03,14,11,29.60
2009,06,03,14,12,29.70
2009,06,03,14,13,29.70
2009,06,03,14,14,29.80
2009,06,03,14,15,29.80
2009,06,03,14,16,29.80
2009,06,03,14,17,29.70
2009,06,03,14,18,29.70
2009,06,03,14,19,29.70
2009,06,03,14,20,29.70
2009,06,03,14,21,29.60
2009,06,03,14,22,29.60
2009,06,03,14,23,29.70
2009,06,03,14,24,29.70
2009,06,03,14,25,29.80
2009,06,03,14,26,29.80
2009,06,03,14,27,29.80
2009,06,03,14,28,29.80
2009,06,03,14,29,29.70
2009,06,03,14,30,29.70
2009,06,03,14,31,29.70
2009,06,03,14,32,29.80
2009,06,03,14,33,29.90
2009,06,03,14,34,30.00
2009,06,03,14,35,30.10
2009,06,03,14,36,30.10
2009,06,03,14,37,30.10
2009,06,03,14,38,30.10
2009,06,03,14,39,30.10
2009,06,03,14,40,30.10
2009,06,03,14,41,30.10
2009,06,03,14,42,30.00
2009,06,03,14,43,29.70
2009,06,03,14,44,29.50
2009,06,03,14,45,29.50
2009,06,03,14,46,29.50
2009,06,03,14,47,29.60
2009,06,03,14,48,29.60
2009,06,03,14,49,29.50
2009,06,03,14,50,29.40
2009,06,03,14,51,29.40
2009,06,03,14,52,29.40
2009,06,03,14,53,29.60
2009,06,03,14,54,29.60
2009,06,03,14,55,29.60
2009,06,03,14,56,29.50
2009,06,03,14,57,29.60
2009,06,03,14,58,29.70
2009,06,03,14,59,29.90
2009,06,03,15,00,30.10
2009,06,03,15,01,30.20
2009,06,03,15,02,30.40
2009,06,03,15,03,30.50
2009,06,03,15,04,30.60
2009,06,03,15,05,30.60
2009,06,03,15,06,30.60
2009,06,03,15,07,30.60
2009,06,03,15,08,30.60
2009,06,03,15,09,30.60
2009,06,03,15,10,30.40
2009,06,03,15,11,30.40
2009,06,03,15,12,30.40
2009,06,03,15,13,30.60
2009,06,03,15,14,30.70
2009,06,03,15,15,30.70
2009,06,03,15,16,30.60
2009,06,03,15,17,30.70
2009,06,03,15,18,30.80
2009,06,03,15,19,30.90
2009,06,03,15,20,30.70
2009,06,03,15,21,30.10
2009,06,03,15,22,29.60
2009,06,03,15,23,29.40
2009,06,03,15,24,29.20
2009,06,03,15,25,29.00
2009,06,03,15,26,28.70
2009,06,03,15,27,28.10
2009,06,03,15,28,27.60
2009,06,03,15,29,27.30
2009,06,03,15,30,27.20
2009,06,03,15,31,27.00
2009,06,03,15,32,26.90
2009,06,03,15,33,27.10
2009,06,03,15,34,27.20
2009,06,03,15,35,27.30
2009,06,03,15,36,27.40
2009,06,03,15,37,27.40
2009,06,03,15,38,27.40
2009,06,03,15,39,27.40
2009,06,03,15,40,27.50
2009,06,03,15,41,27.60
2009,06,03,15,42,27.70
2009,06,03,15,43,27.80
2009,06,03,15,44,27.80
2009,06,03,15,45,28.00
2009,06,03,15,46,28.00
2009,06,03,15,47,28.10
2009,06,03,15,48,28.10
2009,06,03,15,49,28.10
2009,06,03,15,50,28.30
2009,06,03,15,51,28.40
2009,06,03,15,52,28.40
2009,06,03,15,53,28.40
2009,06,03,15,54,28.40
2009,06,03,15,55,28.50
2009,06,03,15,56,28.60
2009,06,03,15,57,28.70
2009,06,03,15,58,28.80
2009,06,03,15,59,28.80
2009,06,03,16,00,28.90
2009,06,03,16,01,28.90
2009,06,03,16,02,28.90
2009,06,03,16,03,28.80
2009,06,03,16,04,28.80
2009,06,03,16,05,28.80
2009,06,03,16,06,28.80
2009,06,03,16,07,28.80
2009,06,03,16,08,28.70
2009,06,03,16,09,28.70
2009,06,03,16,10,28.70
2009,06,03,16,11,28.70
2009,06,03,16,12,28.80
2009,06,03,16,13,28.80
2009,06,03,16,14,28.70
2009,06,03,16,15,28.70
2009,06,03,16,16,28.80
2009,06,03,16,17,28.90
2009,06,03,16,18,28.90
2009,06,03,16,19,29.00
2009,06,03,16,20,29.10
2009,06,03,16,21,29.40
2009,06,03,16,22,29.50
2009,06,03,16,23,29.60
2009,06,03,16,24,29.80
2009,06,03,16,25,29.90
2009,06,03,16,26,29.90
2009,06,03,16,27,30.00
2009,06,03,16,28,30.10
2009,06,03,16,29,30.20
2009,06,03,16,30,30.30
2009,06,03,16,31,30.30
2009,06,03,16,32,30.50
2009,06,03,16,33,30.60
2009,06,03,16,34,30.80
2009,06,03,16,35,30.80
2009,06,03,16,36,30.90
2009,06,03,16,37,31.00
2009,06,03,16,38,31.00
2009,06,03,16,39,30.90
2009,06,03,16,40,30.90
2009,06,03,16,41,30.80
2009,06,03,16,42,30.80
2009,06,03,16,43,30.80
2009,06,03,16,44,30.80
2009,06,03,16,45,30.80
2009,06,03,16,46,30.80
2009,06,03,16,47,31.00
2009,06,03,16,48,31.10
2009,06,03,16,49,31.10
2009,06,03,16,50,31.10
2009,06,03,16,51,31.10
2009,06,03,16,52,31.20
2009,06,03,16,53,31.20
2009,06,03,16,54,31.30
2009,06,03,16,55,31.40
2009,06,03,16,56,31.40
2009,06,03,16,57,31.40
2009,06,03,16,58,31.40
2009,06,03,16,59,31.50
2009,06,03,17,00,31.60
2009,06,03,17,01,31.70
2009,06,03,17,02,31.70
2009,06,03,17,03,31.70
2009,06,03,17,04,31.50
2009,06,03,17,05,31.40
2009,06,03,17,06,31.30
2009,06,03,17,07,31.20
2009,06,03,17,08,31.10
2009,06,03,17,09,31.00
2009,06,03,17,10,30.90
2009,06,03,17,11,30.90
2009,06,03,17,12,30.90
2009,06,03,17,13,30.80
2009,06,03,17,14,30.90
2009,06,03,17,15,31.00
2009,06,03,17,16,31.10
2009,06,03,17,17,31.30
2009,06,03,17,18,31.40
2009,06,03,17,19,31.50